Regional Weather Roundup
Issued by NWS

Home | Current Version | Previous Version | Text Only | Print | Product List | Glossary Off
Versions: 1 2 3 4 5 6 7 8 9 10 11 12 13 14 15 16 17 18 19 20 21 22 23 24 25 26 27 28 29 30 31 32 33 34 35 36 37 38 39 40 41 42 43 44 45 46 47 48 49 50

000
ASUS45 KBOI 311110
RWRID
WEATHER ROUNDUP FOR IDAHO
NATIONAL WEATHER SERVICE BOISE ID
400 AM MST SAT JAN 31 2015

NOTE: "FAIR" INDICATES FEW OR NO CLOUDS BELOW 12000 FEET
WITH NO SIGNIFICANT WEATHER AND/OR OBSTRUCTIONS TO VISIBILITY

IDZ012-014-311200-
SOUTHWEST IDAHO


CITY           SKY/WX    TMP DP  RH WIND       PRES   REMARKS
BOISE          CLEAR     27  24  89 CALM      30.12F
CALDWELL       CLOUDY    25  18  74 CALM      30.16S VSB 1/2
MOUNTAIN HOME  CLEAR     26  25  94 CALM      30.11S
$$

IDZ016-017-311200-
SOUTHCENTRAL IDAHO


CITY           SKY/WX    TMP DP  RH WIND       PRES   REMARKS
BURLEY         CLOUDY    34  30  85 S5        30.08F WCI  30
JEROME         CLOUDY    31  29  92 S3        30.10F
TWIN FALLS     CLEAR     33  27  78 SW9       30.09F WCI  25
$$

IDZ019>023-311200-
SOUTHEAST IDAHO


CITY           SKY/WX    TMP DP  RH WIND       PRES   REMARKS
IDAHO FALLS    CLOUDY    30  28  92 SW9       30.07S WCI  22
POCATELLO      CLOUDY    33  32  96 SW12      30.09F WCI  24
REXBURG        CLOUDY    26  26 100 S9        30.06F WCI  17
$$

IDZ006-010-011-018-031-032-311200-
CENTRAL IDAHO MOUNTAINS


CITY           SKY/WX    TMP DP  RH WIND       PRES   REMARKS
MCCALL         CLEAR     13  10  88 CALM      30.09S
HAILEY         CLEAR     21  12  68 NW14      30.07R WCI   8
STANLEY          N/A     -3  -8  79 S5        30.16S WCI -13
SALMON         CLOUDY    27  21  80 CALM      30.21F
CHALLIS        CLOUDY    24  19  81 NW5       30.17S WCI  18
$$

IDZ002-004-006-007-026-311200-
NORTHERN IDAHO


CITY           SKY/WX    TMP DP  RH WIND       PRES   REMARKS
LEWISTON       CLOUDY    35  32  88 CALM      30.26F
LOWELL           N/A     34  29  82 CALM      30.28F
COEUR D`ALENE  CLOUDY    30  28  93 SW3       30.22F
MULLAN PASS    FOG       22  21  96 VRB6      30.05F VSB 1/2 WCI  14
$$


USA.gov is the U.S. government's official web portal to all federal, state and local government web resources and services.